FW5435 Weather Reports


Display with metric or nautical units.
time (UTC)temp
F
wind
direction
speed
MPH
gust
MPH
rain 1hr
in
rain 24hr
in
rain mn
in
humidity
%
barometer
mb
20211208230119 39 0 0.0 0.0 0.00 0.20 0.20 92 1013.5
20211208225536 40 0 0.0 0.0 0.00 0.20 0.20 92 1013.5
20211208225038 40 0 0.0 0.0 0.00 0.20 0.20 92 1013.5
20211208224635 40 0 0.0 0.0 0.00 0.20 0.20 91 1013.5
20211208224100 40 0 0.0 0.0 0.00 0.20 0.20 91 1013.3
20211208223534 41 0 0.0 0.0 0.00 0.20 0.20 90 1013.4
20211208223207 41 0 0.0 0.0 0.00 0.20 0.20 90 1013.4
20211208222540 41 0 0.0 0.0 0.00 0.20 0.20 90 1013.2
20211208222036 42 0 0.0 0.0 0.00 0.20 0.20 90 1013.2
20211208221552 42 0 0.0 0.0 0.00 0.20 0.20 90 1012.9
20211208221035 42 0 0.0 0.0 0.00 0.20 0.20 89 1013.0
20211208220536 43 0 0.0 0.0 0.00 0.20 0.20 89 1012.9
20211208220129 43 0 0.0 0.0 0.00 0.20 0.20 89 1012.8
20211208215534 43 0 0.0 0.0 0.00 0.20 0.20 89 1012.9
20211208215053 44 0 0.0 1.0 0.00 0.20 0.20 88 1013.0
20211208214548 44 0 0.0 2.0 0.00 0.20 0.20 88 1013.0
20211208214044 44 205 0.0 2.0 0.00 0.20 0.20 87 1013.0
20211208213539 45 0 0.0 2.0 0.00 0.20 0.20 86 1012.8
20211208213127 45 0 0.0 2.0 0.00 0.20 0.20 85 1012.5
20211208212542 45 0 0.0 2.0 0.00 0.20 0.20 85 1012.5
20211208212042 46 0 0.0 3.0 0.00 0.20 0.20 84 1012.5
20211208211550 46 0 0.0 3.0 0.00 0.20 0.20 84 1012.4
20211208211035 46 205 0.0 3.0 0.00 0.20 0.20 84 1012.6
20211208210621 46 205 0.0 3.0 0.00 0.20 0.20 84 1012.5
20211208210219 46 0 0.0 3.0 0.00 0.20 0.20 82 1012.5
20211208205534 47 0 1.0 3.0 0.00 0.20 0.20 82 1012.4
20211208205033 47 205 0.0 4.0 0.00 0.20 0.20 83 1012.3
20211208204620 47 0 1.0 4.0 0.00 0.20 0.20 83 1012.1
20211208204034 47 180 1.0 4.0 0.00 0.20 0.20 84 1012.2
20211208203533 46 0 0.0 2.0 0.00 0.20 0.20 84 1012.1
20211208203106 46 165 1.0 2.0 0.00 0.20 0.20 85 1012.0
20211208202544 45 0 0.0 4.0 0.00 0.20 0.20 86 1012.0
20211208202035 45 0 1.0 4.0 0.00 0.20 0.20 86 1012.0
20211208201611 45 0 0.0 1.0 0.00 0.20 0.20 88 1011.9
20211208201043 44 0 0.0 1.0 0.00 0.20 0.20 87 1012.0
20211208200534 44 0 0.0 1.0 0.00 0.20 0.20 88 1011.8
20211208200145 44 0 0.0 2.0 0.00 0.20 0.20 88 1011.8
20211208195534 44 0 0.0 2.0 0.00 0.20 0.20 89 1011.7
20211208195033 44 0 0.0 1.0 0.00 0.20 0.20 88 1011.8
20211208194602 44 0 0.0 2.0 0.00 0.20 0.20 90 1011.6
20211208194034 44 0 0.0 2.0 0.00 0.20 0.20 89 1011.6
20211208193546 44 0 0.0 2.0 0.00 0.20 0.20 89 1011.7
20211208193113 44 0 0.0 2.0 0.00 0.20 0.20 90 1011.8
20211208192541 43 89 0.0 2.0 0.00 0.20 0.20 89 1011.8
20211208192040 43 0 0.0 2.0 0.00 0.20 0.20 90 1011.8
20211208191556 43 0 0.0 3.0 0.00 0.20 0.20 90 1011.7
20211208191034 43 65 1.0 3.0 0.00 0.20 0.20 90 1012.0
20211208190536 43 0 0.0 2.0 0.00 0.20 0.20 91 1012.0
20211208190115 43 0 0.0 2.0 0.00 0.20 0.20 90 1011.9
20211208185539 43 0 0.0 3.0 0.00 0.20 0.20 91 1011.8
20211208185034 43 0 0.0 3.0 0.00 0.20 0.20 92 1011.9
20211208184610 43 0 0.0 2.0 0.00 0.20 0.20 91 1011.9
20211208184045 43 264 1.0 2.0 0.00 0.20 0.20 92 1012.1
20211208183551 43 0 0.0 0.0 0.00 0.20 0.20 92 1012.1
20211208183053 42 0 0.0 0.0 0.00 0.20 0.20 92 1012.3
20211208182533 42 0 0.0 1.0 0.00 0.20 0.20 92 1012.2
20211208182035 42 0 0.0 2.0 0.00 0.20 0.20 92 1012.2
20211208181655 42 0 0.0 2.0 0.00 0.20 0.20 92 1012.5
20211208181038 42 0 0.0 2.0 0.00 0.20 0.20 93 1012.7
20211208180532 42 0 0.0 2.0 0.00 0.20 0.20 93 1012.8
20211208180054 42 305 0.0 0.0 0.00 0.20 0.20 93 1012.8
20211208175538 42 0 0.0 1.0 0.00 0.20 0.20 93 1013.1
20211208175034 42 0 0.0 1.0 0.00 0.20 0.20 93 1013.0
20211208174605 42 0 0.0 0.0 0.00 0.20 0.20 93 1013.2
20211208174042 42 0 0.0 3.0 0.00 0.20 0.20 93 1013.0
20211208173533 41 0 0.0 3.0 0.00 0.20 0.20 93 1013.1
20211208173045 41 0 0.0 2.0 0.00 0.20 0.20 92 1013.1
20211208172539 41 0 0.0 2.0 0.00 0.20 0.20 92 1013.1
20211208172034 41 0 0.0 1.0 0.00 0.20 0.20 92 1013.2
20211208171716 41 0 0.0 2.0 0.00 0.20 0.20 92 1013.2
20211208171038 41 0 0.0 2.0 0.00 0.20 0.20 92 1013.3
20211208170538 41 0 0.0 0.0 0.00 0.20 0.20 92 1013.1
20211208170116 41 0 0.0 0.0 0.00 0.20 0.20 92 1013.4
20211208165548 41 0 0.0 0.0 0.00 0.20 0.20 91 1013.8
20211208165040 41 0 0.0 0.0 0.00 0.20 0.20 92 1013.8
20211208164700 41 0 0.0 0.0 0.00 0.20 0.20 92 1013.7
20211208164033 41 0 0.0 0.0 0.00 0.20 0.20 91 1014.1
20211208163539 41 0 0.0 0.0 0.00 0.20 0.20 92 1014.3
20211208163113 40 0 0.0 0.0 0.00 0.20 0.20 92 1014.4
20211208162547 40 0 0.0 0.0 0.00 0.20 0.20 92 1014.3
20211208162032 40 0 0.0 0.0 0.00 0.20 0.20 92 1014.1
20211208161642 40 0 0.0 0.0 0.00 0.20 0.20 92 1013.8
20211208161032 40 0 0.0 0.0 0.00 0.20 0.20 92 1014.0
20211208160532 40 0 0.0 0.0 0.00 0.20 0.20 92 1014.3
20211208160136 40 0 0.0 0.0 0.00 0.20 0.20 92 1014.5
20211208155545 40 0 0.0 0.0 0.00 0.20 0.20 92 1014.7
20211208155041 40 0 0.0 0.0 0.00 0.20 0.20 92 1014.9
20211208154714 40 0 0.0 3.0 0.00 0.20 0.20 92 1014.5
20211208154034 40 0 0.0 3.0 0.00 0.20 0.20 92 1014.9
20211208153537 40 0 0.0 0.0 0.00 0.20 0.20 92 1015.1
20211208153108 40 0 0.0 0.0 0.00 0.20 0.20 92 1015.0
20211208152534 40 0 0.0 0.0 0.00 0.20 0.20 92 1015.1
20211208152040 40 0 0.0 0.0 0.00 0.20 0.20 92 1015.1
20211208151548 40 0 0.0 0.0 0.00 0.20 0.20 93 1015.1
20211208151035 40 0 0.0 2.0 0.00 0.20 0.20 92 1014.8
20211208150544 39 0 0.0 4.0 0.00 0.20 0.20 92 1015.3
20211208150119 39 0 0.0 4.0 0.00 0.20 0.20 92 1014.9
20211208145547 39 0 0.0 0.0 0.00 0.20 0.20 93 1014.7
20211208145033 39 0 0.0 1.0 0.00 0.20 0.20 92 1014.6
20211208144549 39 0 0.0 2.0 0.00 0.20 0.20 92 1014.7
20211208144036 39 0 0.0 2.0 0.00 0.20 0.20 92 1015.3
20211208143538 39 5 0.0 2.0 0.00 0.20 0.20 92 1015.1
20211208143140 39 0 0.0 2.0 0.00 0.20 0.20 92 1015.3
20211208142534 39 0 0.0 0.0 0.00 0.20 0.20 92 1015.3
20211208142038 39 0 0.0 2.0 0.00 0.20 0.20 92 1015.2
20211208141621 39 0 0.0 2.0 0.00 0.20 0.20 92 1014.9
20211208141049 39 0 0.0 3.0 0.00 0.20 0.20 92 1015.3
20211208140610 39 0 0.0 3.0 0.00 0.20 0.20 92 1014.9
20211208140113 39 5 0.0 2.0 0.00 0.20 0.20 92 1015.0
20211208135546 39 0 0.0 0.0 0.00 0.20 0.20 92 1015.3
20211208135034 39 0 0.0 0.0 0.01 0.20 0.20 92 1014.9
20211208134551 39 0 0.0 2.0 0.01 0.20 0.20 92 1015.1
20211208134038 39 0 0.0 2.0 0.01 0.20 0.20 92 1015.1
20211208133543 39 262 0.0 2.0 0.01 0.20 0.20 93 1015.1
20211208133126 39 0 0.0 0.0 0.02 0.20 0.20 93 1015.1
20211208132535 39 0 0.0 2.0 0.02 0.20 0.20 92 1015.3
20211208132035 39 0 0.0 4.0 0.02 0.20 0.20 92 1015.4
20211208131618 39 0 2.0 4.0 0.02 0.20 0.20 92 1015.4
20211208131051 39 0 0.0 0.0 0.03 0.20 0.20 92 1014.7
20211208130532 39 0 0.0 2.0 0.04 0.20 0.20 92 1015.0
20211208130116 39 0 0.0 3.0 0.05 0.20 0.20 92 1015.1
20211208125531 39 19 0.0 4.0 0.06 0.20 0.20 93 1015.1
20211208125049 39 271 1.0 4.0 0.05 0.19 0.19 93 1015.8
20211208124634 39 243 1.0 3.0 0.05 0.19 0.19 92 1014.9
20211208124031 39 0 0.0 3.0 0.06 0.19 0.19 92 1013.7
20211208123549 39 0 0.0 3.0 0.06 0.19 0.19 92 1014.5
20211208123120 39 0 0.0 4.0 0.05 0.18 0.18 92 1014.4
20211208122537 39 281 1.0 4.0 0.05 0.18 0.18 92 1013.8
20211208122044 39 133 1.0 3.0 0.05 0.18 0.18 92 1013.8
20211208121719 39 133 1.0 3.0 0.06 0.18 0.18 92 1013.8
20211208121033 39 184 1.0 2.0 0.05 0.17 0.17 92 1014.2
20211208120545 39 0 0.0 0.0 0.04 0.16 0.16 92 1014.3
20211208120044 39 0 0.0 0.0 0.04 0.15 0.15 92 1015.2
20211208115601 39 0 0.0 2.0 0.04 0.14 0.14 91 1016.2
20211208115037 39 0 0.0 2.0 0.05 0.14 0.14 91 1016.3
20211208114556 39 0 0.0 2.0 0.06 0.14 0.14 91 1015.8
20211208114034 39 265 0.0 1.0 0.06 0.13 0.13 91 1016.3
20211208113535 39 0 0.0 0.0 0.08 0.13 0.13 91 1015.8
20211208113123 39 0 0.0 0.0 0.09 0.13 0.13 91 1016.1
20211208112535 39 0 0.0 2.0 0.11 0.13 0.13 91 1015.9
20211208112035 39 0 0.0 2.0 0.11 0.13 0.13 90 1015.7
20211208111627 39 0 0.0 2.0 0.10 0.12 0.12 91 1015.5
20211208111035 39 0 0.0 1.0 0.10 0.12 0.12 91 1015.3
20211208110532 40 0 0.0 0.0 0.12 0.12 0.12 90 1014.9
20211208110130 40 0 0.0 0.0 0.11 0.11 0.11 90 1015.4
20211208105552 40 0 0.0 0.0 0.10 0.10 0.10 89 1015.3
20211208105042 40 0 0.0 0.0 0.09 0.09 0.09 89 1015.6
20211208104559 40 0 0.0 0.0 0.08 0.08 0.08 88 1015.9
20211208104034 40 0 0.0 0.0 0.06 0.06 0.06 88 1016.0
20211208103534 41 0 0.0 0.0 0.05 0.05 0.05 87 1015.6
20211208103115 41 0 0.0 0.0 0.03 0.03 0.03 87 1015.4
20211208102535 41 0 0.0 0.0 0.02 0.02 0.02 87 1015.5
20211208102033 41 0 0.0 0.0 0.02 0.02 0.02 86 1015.7
20211208101544 41 0 0.0 0.0 0.02 0.02 0.02 85 1015.5
20211208101034 42 0 0.0 2.0 0.02 0.02 0.02 84 1015.1
20211208100533 42 0 0.0 2.0 0.00 0.00 0.00 83 1015.2
20211208100049 42 0 0.0 2.0 0.00 0.00 0.00 82 1015.3
20211208095542 42 0 0.0 2.0 0.00 0.00 0.00 82 1015.9
20211208095044 42 0 0.0 2.0 0.00 0.00 0.00 82 1015.2
20211208094635 43 0 0.0 0.0 0.00 0.00 0.00 79 1014.6
20211208094034 43 0 0.0 0.0 0.00 0.00 0.00 78 1014.7
20211208093551 43 0 0.0 0.0 0.00 0.00 0.00 75 1014.9
20211208093100 43 0 0.0 0.0 0.00 0.00 0.00 76 1014.4
20211208092538 43 0 0.0 0.0 0.00 0.00 0.00 73 1014.9
20211208092037 44 0 0.0 0.0 0.00 0.00 0.00 70 1014.9
20211208091735 44 0 0.0 0.0 0.00 0.00 0.00 62 1015.1
20211208091031 44 0 0.0 0.0 0.00 0.00 0.00 66 1015.5
20211208090532 43 0 0.0 0.0 0.00 0.00 0.00 67 1015.4
20211208090120 43 0 0.0 0.0 0.00 0.00 0.00 69 1015.3
20211208085532 43 0 0.0 0.0 0.00 0.00 0.00 68 1015.3
20211208085032 43 0 0.0 0.0 0.00 0.00 0.00 67 1015.4
20211208084601 43 0 0.0 0.0 0.00 0.00 0.00 67 1015.4
20211208084035 43 0 0.0 0.0 0.00 0.00 0.00 65 1015.6
20211208083558 43 0 0.0 0.0 0.00 0.00 0.00 66 1015.8
20211208083048 43 0 0.0 0.0 0.00 0.00 0.00 65 1015.9
20211208082538 43 0 0.0 0.0 0.00 0.00 0.00 64 1016.1
20211208082032 43 0 0.0 0.0 0.00 0.00 0.00 64 1015.9
20211208081558 43 0 0.0 0.0 0.00 0.00 0.00 67 1015.5
20211208081031 43 0 0.0 0.0 0.00 0.00 0.00 62 1016.1
20211208080547 43 0 0.0 0.0 0.00 0.00 0.00 66 1016.1
20211208080059 43 0 0.0 0.0 0.00 0.00 0.00 64 1016.5
20211208075533 44 0 0.0 0.0 0.00 0.00 0.00 63 1016.5
20211208075034 44 0 0.0 0.0 0.00 0.00 0.00 60 1016.9
20211208074552 44 0 0.0 0.0 0.00 0.00 0.00 62 1016.7
20211208074036 44 0 0.0 0.0 0.00 0.00 0.00 61 1016.9
20211208073534 44 0 0.0 0.0 0.00 0.00 0.00 62 1016.9
20211208073057 44 0 0.0 0.0 0.00 0.00 0.00 63 1016.9
20211208072535 44 0 0.0 0.0 0.00 0.00 0.00 61 1017.0
20211208072040 44 0 0.0 0.0 0.00 0.00 0.00 62 1016.9
20211208071615 44 0 0.0 0.0 0.00 0.00 0.00 64 1017.0
20211208071034 44 0 0.0 0.0 0.00 0.00 0.00 62 1017.0
20211208070537 44 0 0.0 0.0 0.00 0.00 0.00 62 1017.0
20211208070053 44 0 0.0 0.0 0.00 0.00 0.00 64 1017.2
20211208065533 44 0 0.0 0.0 0.00 0.00 0.00 62 1017.2
20211208065031 44 0 0.0 0.0 0.00 0.00 0.00 64 1017.4
20211208064539 44 0 0.0 0.0 0.00 0.00 0.00 62 1017.3
20211208064102 44 0 0.0 0.0 0.00 0.00 0.00 61 1017.2
20211208063539 44 0 0.0 0.0 0.00 0.00 0.00 60 1017.2
20211208063051 44 0 0.0 0.0 0.00 0.00 0.00 62 1017.1
20211208062554 44 0 0.0 0.0 0.00 0.00 0.00 60 1016.8
20211208062033 44 0 0.0 0.0 0.00 0.00 0.00 60 1017.3
20211208061633 44 0 0.0 0.0 0.00 0.00 0.00 59 1017.3
20211208061034 44 0 0.0 0.0 0.00 0.00 0.00 60 1017.2
20211208060538 44 0 0.0 0.0 0.00 0.00 0.00 60 1017.4
20211208060127 44 0 0.0 0.0 0.00 0.00 0.00 57 1017.2
20211208055543 44 0 0.0 0.0 0.00 0.00 0.00 57 1017.7
20211208055032 44 0 0.0 0.0 0.00 0.00 0.00 55 1017.7
20211208054543 45 0 0.0 0.0 0.00 0.00 0.00 54 1017.6
20211208054034 45 0 0.0 0.0 0.00 0.00 0.00 54 1017.3
20211208053535 45 0 0.0 0.0 0.00 0.00 0.00 53 1017.3
20211208053057 45 0 0.0 0.0 0.00 0.00 0.00 54 1017.4
20211208052533 45 0 0.0 0.0 0.00 0.00 0.00 56 1017.4
20211208052041 45 0 0.0 0.0 0.00 0.00 0.00 54 1017.6
20211208051615 45 0 0.0 0.0 0.00 0.00 0.00 52 1017.5
20211208051036 45 0 0.0 0.0 0.00 0.00 0.00 53 1017.7
20211208050544 45 0 0.0 0.0 0.00 0.00 0.00 52 1017.8
20211208050122 45 0 0.0 0.0 0.00 0.00 0.00 56 1018.2
20211208045533 45 0 0.0 0.0 0.00 0.00 0.00 57 1018.4
20211208045033 45 0 0.0 0.0 0.00 0.00 0.00 53 1018.7
20211208044603 45 0 0.0 0.0 0.00 0.00 0.00 57 1018.6
20211208044032 46 0 0.0 0.0 0.00 0.00 0.00 55 1018.9
20211208043532 46 0 0.0 0.0 0.00 0.00 0.00 57 1019.0
20211208043153 46 0 0.0 0.0 0.00 0.00 0.00 57 1019.1
20211208042536 46 0 0.0 0.0 0.00 0.00 0.00 53 1019.3
20211208042037 46 0 0.0 0.0 0.00 0.00 0.00 54 1019.3
20211208041602 46 0 0.0 0.0 0.00 0.00 0.00 58 1019.2
20211208041040 46 0 0.0 0.0 0.00 0.00 0.00 54 1019.3
20211208040534 46 0 0.0 0.0 0.00 0.00 0.00 54 1019.5
20211208040143 46 0 0.0 0.0 0.00 0.00 0.00 54 1019.4
20211208035544 46 0 0.0 0.0 0.00 0.00 0.00 52 1019.4
20211208035110 46 0 0.0 0.0 0.00 0.00 0.00 52 1019.7
20211208034646 46 0 0.0 0.0 0.00 0.00 0.00 49 1019.6
20211208034033 46 0 0.0 2.0 0.00 0.00 0.00 49 1019.6
20211208033537 46 0 0.0 3.0 0.00 0.00 0.00 48 1019.7
20211208033103 46 0 0.0 3.0 0.00 0.00 0.00 49 1019.4
20211208032542 47 0 0.0 0.0 0.00 0.00 0.00 48 1019.5
20211208032032 47 0 0.0 0.0 0.00 0.00 0.00 47 1019.3
20211208031617 47 0 0.0 0.0 0.00 0.00 0.00 48 1019.5
20211208031033 47 0 0.0 0.0 0.00 0.00 0.00 47 1019.7
20211208030532 47 0 0.0 0.0 0.00 0.00 0.00 48 1019.7
20211208030118 47 0 0.0 0.0 0.00 0.00 0.00 47 1019.5
20211208025545 47 0 0.0 0.0 0.00 0.00 0.00 47 1019.6
20211208025034 47 0 0.0 0.0 0.00 0.00 0.00 46 1019.6
20211208024556 47 0 0.0 0.0 0.00 0.00 0.00 46 1019.6
20211208024031 47 0 0.0 0.0 0.00 0.00 0.00 47 1019.8
20211208023534 47 0 0.0 0.0 0.00 0.00 0.00 49 1019.9
20211208023049 47 0 0.0 0.0 0.00 0.00 0.00 45 1020.0
20211208022530 47 0 0.0 2.0 0.00 0.00 0.00 48 1020.1
20211208022031 47 0 0.0 2.0 0.00 0.00 0.00 48 1019.8
20211208021631 47 244 0.0 2.0 0.00 0.00 0.00 46 1019.9
20211208021035 47 0 0.0 2.0 0.00 0.00 0.00 48 1019.9
20211208020535 47 197 0.0 2.0 0.00 0.00 0.00 46 1019.5
20211208020151 47 0 0.0 0.0 0.00 0.00 0.00 50 1019.9
20211208015533 47 0 0.0 0.0 0.00 0.00 0.00 48 1020.0
20211208015052 47 0 0.0 0.0 0.00 0.00 0.00 49 1019.8
20211208014542 47 0 0.0 0.0 0.00 0.00 0.00 48 1019.9
20211208014034 47 0 0.0 0.0 0.00 0.00 0.00 47 1019.8
20211208013535 47 0 0.0 0.0 0.00 0.00 0.00 48 1019.8
20211208013156 48 0 0.0 0.0 0.00 0.00 0.00 50 1019.8
20211208012545 47 0 0.0 0.0 0.00 0.00 0.00 44 1019.8
20211208012030 47 0 0.0 0.0 0.00 0.00 0.00 46 1019.7
20211208011546 47 0 0.0 0.0 0.00 0.00 0.00 47 1019.7
20211208011037 47 0 0.0 0.0 0.00 0.00 0.00 48 1019.9
20211208010541 47 0 0.0 0.0 0.00 0.00 0.00 51 1020.0
20211208010041 47 0 0.0 0.0 0.00 0.00 0.00 51 1020.1
20211208005537 47 0 0.0 0.0 0.00 0.00 0.00 49 1020.0
20211208005045 46 0 0.0 0.0 0.00 0.00 0.00 53 1020.0
20211208004639 46 0 0.0 0.0 0.00 0.00 0.00 51 1020.0
20211208004041 46 0 0.0 0.0 0.00 0.00 0.00 55 1020.0
20211208003602 46 0 0.0 0.0 0.00 0.00 0.00 54 1019.9
20211208003048 46 0 0.0 0.0 0.00 0.00 0.00 56 1019.8
20211208002535 46 0 0.0 0.0 0.00 0.00 0.00 52 1020.0
20211208002032 46 0 0.0 0.0 0.00 0.00 0.00 53 1019.6
20211208001615 46 0 0.0 0.0 0.00 0.00 0.00 53 1019.6
20211208001031 46 0 0.0 0.0 0.00 0.00 0.00 55 1019.6
20211208000533 46 0 0.0 0.0 0.00 0.00 0.00 51 1019.7
20211208000131 46 0 0.0 0.0 0.00 0.00 0.00 50 1019.6
20211207235533 47 0 0.0 0.0 0.00 0.00 0.00 51 1019.9
20211207235034 47 0 0.0 0.0 0.00 0.00 0.00 52 1019.9
20211207234711 47 0 0.0 0.0 0.00 0.00 0.00 51 1019.8
20211207234038 47 0 0.0 0.0 0.00 0.00 0.00 52 1019.9
20211207233551 47 0 0.0 0.0 0.00 0.00 0.00 51 1019.8
20211207233100 47 0 0.0 0.0 0.00 0.00 0.00 50 1019.9
20211207232541 47 0 0.0 0.0 0.00 0.00 0.00 52 1020.0
20211207232052 47 0 0.0 0.0 0.00 0.00 0.00 51 1019.9
20211207231616 47 0 0.0 0.0 0.00 0.00 0.00 50 1020.0
20211207231035 47 0 0.0 0.0 0.00 0.00 0.00 50 1019.9
20211207230533 47 0 0.0 0.0 0.00 0.00 0.00 51 1019.8